RH
12 12 11 10 10 9 9 9 9 9 9 8 7 6 6 6 6 5 4 4 4 4 4 4 6 8 12 25 35 25 24 20 19 20 19 21 27 28 30 27 28 34 33 32 30 30 28
12 12 11 11 10 9 8 9 10 10 9 7 6 6 6 6 5 4 4 4 4 5 5 5 6 8 13 24 28 26 21 22 22 22 23 26 30 29 26 31 28 34 36 35 29 29 29
13 12 11 11 10 10 10 9 10 10 9 7 6 6 6 5 4 4 5 5 5 5 6 8 9 12 16 27 26 25 26 24 24 24 30 23 22 26 34 31 35 37 32 33 31 35 31
12 12 11 11 11 11 10 10 10 9 8 7 6 6 5 5 5 5 6 6 6 9 12 14 15 19 24 24 28 28 30 30 26 23 23 20 21 24 31 33 29 36 36 27 24 38 38
12 11 11 11 11 11 11 10 10 9 8 6 6 6 5 5 6 7 7 7 9 12 15 20 25 29 36 34 32 31 30 33 27 27 26 24 25 38 40 34 26 35 25 33 28 40 40
12 10 11 11 11 11 11 11 10 8 7 7 6 5 5 6 7 8 8 9 17 16 17 23 22 26 36 38 26 27 30 26 23 26 37 41 41 48 56 35 19 29 36 33 29 34 39
12 11 11 11 10 11 12 11 10 8 7 6 5 5 5 6 8 9 9 10 19 22 21 28 32 30 32 34 41 36 38 41 40 38 45 43 41 36 32 42 31 37 36 38 34 26 30
15 11 11 11 11 11 12 12 9 8 7 6 5 5 6 6 8 10 9 8 12 18 35 38 39 33 36 41 40 36 41 39 39 45 39 40 37 30 35 34 34 33 34 36 32 32 32
19 15 12 12 12 12 13 12 9 8 7 6 5 5 6 7 11 10 9 11 16 20 37 39 40 36 36 40 38 38 34 42 39 38 40 42 32 33 32 33 32 31 36 34 33 37 30
23 20 15 14 13 13 13 13 9 8 7 6 5 5 6 8 12 10 9 12 18 20 40 37 43 42 34 38 45 36 37 38 39 38 41 37 32 35 35 36 38 39 35 36 37 39 36
25 24 19 15 14 14 14 14 11 7 6 6 5 5 6 8 10 10 10 13 19 36 39 35 41 39 32 40 42 47 42 37 45 45 33 18 36 36 36 32 37 35 37 39 35 41 53
46 25 25 18 16 15 14 13 11 7 6 5 5 5 6 8 10 10 10 16 34 47 30 35 36 33 29 30 35 45 37 29 34 39 39 42 38 39 36 38 38 38 38 44 56 54 76
64 43 25 22 19 18 15 14 11 7 5 4 4 5 6 8 9 9 11 28 40 47 20 30 38 33 31 29 30 40 44 49 38 28 26 32 36 43 39 42 39 44 41 54 45 72 51
83 64 43 27 21 20 18 14 10 7 4 4 4 5 7 8 9 10 14 28 16 25 33 39 37 34 32 31 29 40 51 55 51 49 52 54 42 40 37 43 44 43 44 53 30 55 38
95 83 64 45 27 22 21 15 10 6 4 4 4 6 8 12 12 12 21 38 34 27 40 40 37 38 30 34 33 33 46 55 53 53 32 50 35 38 30 29 34 35 56 47 54 59 84
99 98 80 63 47 28 24 15 10 6 4 4 5 6 12 20 16 19 29 34 42 51 48 43 27 33 31 34 34 33 41 48 51 44 45 51 43 38 38 26 22 35 34 54 61 57 73
100 100 99 83 63 42 27 16 10 5 4 4 5 11 31 18 20 24 31 30 52 49 52 47 40 41 34 41 40 36 35 47 45 43 40 40 47 31 34 32 30 27 33 41 48 62 76
100 100 100 98 90 60 35 17 8 4 3 4 6 17 29 21 25 60 48 55 51 48 49 54 52 50 44 46 45 45 42 50 42 37 46 42 55 60 39 27 25 26 28 37 55 46 52
100 100 100 100 98 89 51 18 7 3 3 4 7 18 28 24 24 46 56 50 50 49 46 50 54 48 47 49 47 57 59 47 36 32 41 28 37 39 24 33 31 29 27 30 43 57 60
100 100 100 100 100 89 70 21 5 3 3 4 10 34 32 27 30 48 55 49 49 46 44 43 48 40 42 52 42 55 67 52 37 34 37 26 34 32 31 32 40 40 34 33 42 85 54
100 100 100 100 100 95 87 54 28 12 4 4 6 21 38 39 31 52 50 51 50 45 43 39 38 43 41 43 46 48 65 53 38 38 44 31 33 42 40 40 42 40 40 42 48 49 63
100 100 98 100 100 98 100 96 71 55 10 4 10 20 39 41 34 40 52 55 51 46 43 40 41 39 28 31 32 37 55 58 46 55 43 42 37 49 57 41 41 44 44 45 43 45 62
100 100 100 99 100 100 98 98 99 66 13 5 7 21 17 46 39 37 37 39 53 45 39 37 37 32 30 44 40 40 38 36 33 60 56 48 47 68 75 52 56 59 74 88 81 89 93
99 99 100 100 100 100 99 96 94 60 8 6 12 19 23 24 36 36 40 44 52 40 45 46 33 31 49 48 40 38 38 42 44 46 46 56 58 65 86 68 95 70 74 76 82 95 96
99 98 100 100 100 100 96 95 92 36 8 7 14 17 18 46 44 48 48 55 48 50 58 57 53 50 43 32 35 35 38 43 50 54 54 50 65 84 93 92 64 88 85 80 82 81 96
91 100 100 100 100 100 93 96 54 20 9 12 16 18 21 35 59 57 50 48 52 60 60 60 45 39 35 42 37 34 36 41 48 58 59 62 77 75 89 95 91 67 80 58 68 96 76
77 100 100 100 100 97 99 94 43 14 11 14 20 24 21 56 73 54 49 48 46 53 66 60 48 49 37 53 46 56 54 43 53 68 76 89 94 94 96 96 92 91 67 59 92 76 76
72 96 100 100 100 99 99 84 40 29 20 21 25 32 24 62 80 66 57 53 50 50 66 58 55 56 67 68 64 75 69 68 61 67 68 78 92 99 96 97 93 62 57 71 76 73 79
100 99 100 100 100 100 96 48 26 22 16 23 20 31 26 36 78 75 71 63 55 50 49 61 63 81 81 86 89 81 72 66 78 84 73 88 82 94 85 87 78 72 72 71 72 78 82
Wind_Speed
1 2 3 4 6 7 8 8 8 8 7 7 7 8 9 10 10 11 11 12 11 10 9 8 5 3 1 2 2 2 1 1 2 2 2 1 1 1 3 2 2 2 1 2 2 5 4
1 1 3 5 6 7 7 8 8 7 7 7 8 8 9 10 11 12 13 12 12 11 10 9 6 2 1 2 1 2 2 1 2 1 1 0 1 1 3 2 2 1 4 8 6 2 3
1 1 3 5 5 6 7 7 7 7 7 8 9 9 9 10 11 10 10 10 10 9 8 4 1 2 3 2 0 1 0 0 0 0 1 0 1 1 0 2 2 1 4 5 4 1 2
2 2 3 4 5 5 6 6 6 6 6 7 8 9 10 11 11 12 11 10 9 6 5 4 3 3 4 3 2 1 1 0 1 1 0 0 1 1 0 1 4 3 4 3 3 5 1
3 3 3 3 4 5 6 6 5 5 6 7 8 8 10 11 11 11 10 9 6 4 4 4 3 2 3 3 2 2 1 0 1 1 1 1 0 2 1 3 4 6 2 1 1 1 2
5 4 4 5 5 5 6 6 6 6 6 7 8 9 10 11 11 10 9 6 2 3 2 3 4 2 2 0 2 2 2 2 1 1 2 2 2 3 3 4 4 3 2 1 1 3 3
5 5 5 5 6 6 6 7 6 6 6 7 8 9 11 11 12 10 9 3 1 1 5 4 3 3 2 2 3 4 3 1 1 2 2 3 4 2 4 4 1 1 1 3 3 3 3
4 4 5 6 6 7 7 8 7 7 7 8 9 9 9 11 11 9 8 3 4 2 2 4 4 4 3 2 2 5 5 2 3 2 2 5 2 3 1 1 0 1 1 4 3 2 1
6 5 5 5 6 6 6 7 7 7 8 8 8 9 11 11 8 9 7 5 3 2 2 1 2 2 2 2 2 5 5 2 3 2 2 3 1 3 2 1 2 2 4 3 4 5 2
8 7 7 5 5 6 5 6 6 6 7 7 8 8 9 10 5 9 5 5 3 1 4 2 2 2 2 1 3 6 6 4 3 1 1 3 3 1 1 2 3 3 2 2 2 2 4
8 8 8 8 7 7 7 7 6 6 6 7 7 8 8 7 6 5 4 3 3 2 4 1 1 0 1 1 0 3 6 2 2 2 3 4 1 1 1 2 2 5 1 2 3 3 3
11 9 9 9 8 8 8 8 8 8 7 7 7 7 7 6 5 5 3 2 2 6 5 1 0 1 2 1 1 1 1 2 2 2 1 5 4 2 2 1 1 2 2 4 4 3 1
11 11 10 10 10 9 9 9 8 8 7 7 7 7 6 5 4 3 1 1 5 5 1 2 1 1 1 2 1 4 5 6 1 3 3 4 2 4 2 2 2 4 4 4 4 2 6
14 13 12 11 10 10 10 10 9 8 7 7 7 8 7 5 3 1 2 4 2 3 4 1 2 1 2 3 1 3 2 1 3 2 1 1 5 2 5 2 2 1 4 4 5 4 5
19 16 14 12 11 10 10 10 9 9 7 7 8 8 7 5 4 3 4 3 6 4 2 3 2 1 1 1 1 2 1 2 1 2 3 2 5 4 4 2 2 2 3 1 1 0 2
22 18 17 15 12 12 11 10 10 10 8 7 7 8 8 4 3 7 4 5 4 2 2 2 5 4 4 4 3 3 3 2 2 1 1 1 5 2 5 1 4 2 3 2 1 4 6
22 20 20 17 16 13 11 11 10 9 8 7 5 4 3 3 5 3 3 6 3 2 3 3 3 3 4 4 5 4 3 1 3 3 2 2 1 3 1 2 1 4 1 4 0 3 4
25 24 22 20 19 15 12 10 11 8 8 6 2 1 4 5 1 1 3 2 3 4 2 2 3 2 4 3 4 4 5 1 3 4 4 1 3 4 6 1 0 1 2 3 3 4 2
30 27 25 22 18 17 14 12 10 9 7 5 2 2 6 8 2 2 1 1 1 1 1 3 4 2 2 4 3 3 3 2 4 2 5 5 2 3 2 2 1 3 2 3 3 3 5
24 27 30 25 20 18 13 12 9 8 8 8 2 1 3 7 3 4 4 3 3 1 1 1 2 3 3 3 1 4 4 3 2 2 3 1 1 5 6 2 2 3 3 3 4 2 4
30 30 31 26 22 19 14 15 13 9 10 10 5 3 4 2 4 3 4 3 3 3 1 3 1 4 5 5 4 4 3 2 2 4 3 3 5 2 3 4 3 5 7 8 8 7 7
30 31 33 27 21 17 13 14 16 15 11 15 4 4 4 2 2 6 3 5 7 2 4 2 2 1 1 2 1 4 5 4 4 2 4 1 2 1 3 7 7 9 7 9 9 5 5
34 36 33 31 26 18 16 14 15 14 14 13 12 8 3 1 2 4 3 3 5 10 2 3 2 3 2 3 4 5 5 3 4 6 6 5 2 2 4 3 5 6 2 1 0 2 2
36 35 36 31 26 19 16 15 14 13 15 18 9 8 6 2 2 2 3 2 2 1 5 2 5 4 4 5 4 2 1 1 4 4 5 5 4 3 3 2 2 2 1 3 2 2 1
32 38 38 35 25 21 17 14 14 14 14 18 16 10 6 3 4 3 6 6 10 7 4 4 4 4 5 4 2 1 2 1 2 5 6 3 3 0 2 2 4 1 3 2 4 4 2
25 31 42 36 26 19 16 14 13 15 15 18 19 16 7 11 1 3 4 4 3 3 3 3 5 5 3 3 1 1 3 2 1 2 5 5 4 3 2 2 4 4 3 3 6 4 0
21 35 40 32 26 21 18 15 15 13 12 16 14 17 8 9 4 5 3 4 4 4 3 3 3 2 3 2 1 2 2 1 2 3 3 2 1 5 5 4 4 3 2 2 4 5 7
22 35 43 31 25 21 17 14 12 13 11 14 14 17 9 10 10 5 4 4 7 6 3 6 4 1 2 2 2 1 2 1 1 1 1 4 3 3 1 1 7 2 1 3 2 6 12
41 28 33 26 25 23 17 14 12 12 13 14 13 14 9 7 17 20 17 11 6 5 9 5 4 3 4 3 2 1 1 2 2 2 2 1 3 2 3 2 0 2 4 1 5 11 14
Wind_Direction
121 63 38 15 10 8 6 6 8 10 11 10 5 6 2 358 354 354 348 343 338 336 334 331 330 332 100 77 69 346 324 329 312 307 328 335 76 70 107 1 31 82 341 329 286 301 301
168 8 13 6 3 2 2 5 5 5 8 7 3 5 0 357 355 351 348 343 340 334 329 326 323 323 135 131 302 318 298 288 287 278 306 350 125 123 132 129 124 260 289 294 302 310 223
245 317 342 350 352 358 2 0 4 4 1 359 356 358 355 356 353 349 345 340 343 344 336 331 282 149 136 145 210 265 231 246 121 119 326 52 177 198 82 81 356 316 336 345 26 81 139
240 293 326 339 345 351 357 358 358 355 353 355 356 355 353 355 351 349 345 343 342 2 5 34 83 125 94 97 72 338 303 289 100 93 116 9 335 143 122 327 27 52 51 56 344 137 41
259 280 307 326 341 348 351 349 349 350 351 351 352 352 351 351 353 348 342 343 351 22 51 64 55 112 93 102 82 76 71 192 196 184 322 271 308 71 49 72 12 2 204 173 354 284 138
283 295 308 320 334 345 344 345 349 349 349 348 350 350 348 349 349 345 341 338 22 43 61 77 74 103 123 311 332 301 283 274 213 300 110 96 58 58 40 79 231 201 184 226 249 256 6
288 303 309 315 324 339 341 342 344 347 349 346 348 351 350 348 344 347 346 347 20 356 36 54 33 52 22 341 30 353 6 36 89 93 97 50 59 248 236 196 81 46 303 274 301 306 223
269 286 301 316 325 334 338 337 337 338 340 345 347 349 349 347 344 352 356 17 49 125 60 66 53 52 64 44 340 20 11 15 15 72 77 26 195 194 214 170 94 180 269 258 259 24 186
270 275 283 301 314 323 331 333 333 335 336 338 343 348 347 346 345 353 16 43 70 80 110 64 86 44 29 18 29 11 26 36 50 16 36 158 228 1 50 322 301 232 189 189 218 335 17
279 281 285 287 296 302 309 315 318 320 324 330 334 343 347 346 354 351 14 23 42 45 69 318 29 31 359 58 37 26 20 25 20 102 341 243 325 59 69 268 135 302 169 128 183 99 216
284 280 283 285 294 300 303 306 303 305 312 318 326 334 342 346 342 355 353 22 39 48 15 265 242 160 68 79 130 15 27 42 91 343 68 259 330 340 275 225 146 229 307 257 215 207 92
292 282 274 275 279 287 294 298 300 301 307 313 318 325 332 336 340 349 9 40 63 43 265 216 110 70 55 37 63 217 34 52 76 95 350 255 288 239 218 55 104 339 322 47 49 110 283
288 294 288 282 284 288 289 292 294 294 299 304 308 312 318 320 324 341 24 105 37 129 21 202 235 94 106 206 349 40 21 16 52 39 338 328 283 328 42 8 52 73 53 329 331 354 234
275 284 291 288 282 285 290 292 289 288 295 299 304 303 298 292 289 292 133 50 133 223 200 106 98 58 223 157 330 47 68 63 36 58 75 126 316 7 359 87 157 117 162 174 259 235 266
265 272 278 285 288 284 287 285 284 282 286 295 299 295 283 265 260 188 146 80 213 193 120 144 72 143 255 242 185 86 55 191 115 25 164 140 275 317 54 356 66 154 191 131 291 246 344
261 264 272 279 286 284 282 280 283 282 282 288 298 291 270 250 192 166 95 225 188 156 145 112 194 185 220 192 169 171 174 139 148 79 56 164 304 4 305 63 41 189 140 73 19 262 253
263 263 266 269 275 278 277 281 278 275 279 285 300 279 225 198 166 186 178 211 171 174 170 163 199 222 213 186 178 191 194 113 164 150 89 109 101 275 294 24 54 358 349 38 302 176 232
258 263 263 266 269 272 273 272 274 267 273 270 231 336 211 187 180 9 171 219 156 166 156 140 111 182 207 171 185 220 215 143 157 152 147 170 155 253 245 341 171 222 178 151 153 249 265
259 262 263 263 266 265 260 262 260 258 255 254 231 230 210 191 211 223 248 330 81 130 167 157 160 170 166 190 208 171 172 125 162 151 159 176 200 322 304 6 11 94 146 141 117 105 205
260 256 260 257 258 262 255 251 250 247 251 220 244 347 204 202 214 144 154 215 208 182 152 136 148 126 128 184 262 185 171 176 123 101 100 100 191 215 230 160 112 242 200 200 155 148 253
258 260 259 258 251 257 255 242 240 240 241 217 207 244 181 245 257 166 158 122 146 215 209 204 280 227 172 185 197 200 114 113 74 161 129 141 229 232 277 262 236 244 239 224 219 228 225
255 258 254 254 254 261 263 259 242 235 233 221 217 189 177 158 159 127 177 220 189 166 136 247 239 155 201 221 206 176 135 179 191 140 146 161 268 65 281 267 276 279 247 244 251 264 275
255 256 259 254 254 257 266 256 235 218 224 217 225 225 203 169 131 124 216 190 197 140 111 89 206 123 145 150 111 99 97 107 184 160 175 162 164 84 270 347 328 291 247 359 54 94 137
251 254 254 252 246 252 259 253 236 216 230 218 217 205 192 212 160 207 136 89 128 148 145 120 123 126 165 140 118 87 42 171 186 189 171 148 141 152 271 8 250 270 122 128 172 205 281
250 253 255 250 239 242 254 237 240 223 234 223 220 212 195 120 132 98 116 121 103 84 76 82 47 107 141 118 66 31 330 299 214 205 192 155 141 272 224 202 312 280 318 100 97 287 208
253 254 252 249 234 234 234 239 223 220 230 223 217 216 206 134 146 127 129 164 136 117 80 95 106 121 113 63 74 248 254 250 263 111 60 100 88 140 115 214 261 228 134 20 126 287 141
254 251 249 238 231 228 226 228 214 221 218 216 220 209 190 109 96 139 137 152 129 104 102 128 138 85 102 102 141 205 269 293 250 203 192 131 86 193 224 249 266 201 311 143 78 250 314
231 250 240 230 223 224 226 210 210 228 208 203 205 193 197 114 80 129 137 143 137 147 140 157 100 117 80 98 178 204 142 244 301 315 251 186 169 202 98 260 268 30 310 217 274 322 325
233 247 229 217 218 219 214 184 208 205 192 202 194 190 173 109 110 98 88 86 103 125 134 139 137 128 137 103 157 98 183 74 85 259 356 279 183 187 184 238 73 57 124 37 338 323 326